Location: La Trinit�
(48.1620°N, 3.4512°W)
Time: 17:32:26
(UTC+00:00)

ATLAS 2AS CENTAUR R/B - Pass Details

Date: 08 May 2021
Orbit: 949 x 1263 km, 63.7° (Epoch: 07 May)

Event Time Altitude Azimuth Distance (km) Brightness Sun altitude
Rises 21:44:47 0° 316° (NW) 4,151 7.5 -16.9°
Reaches altitude 10° 21:47:49 10° 323° (NW) 3,148 6.5 -17.2°
Maximum altitude 21:54:58 44° 34° (NE) 1,539 3.7 -17.9°
Enters shadow 22:00:32 15° 101° (ESE) 2,587 4.3 -18.4°
